[[{"header":{"parameterUnit":"m.s-1","parameterCategory":1,"la1":30.2991,"la2":30.254,"lo1":-89.0895,"lo2":-89.0444,"dy":0.0017,"dx":0.0017,"nx":28,"ny":28,"refTime":"2025-08-21T03:00:00:Z","depth":0,"parameterNumber":2,"parameterNumberName":"U-component_of_WINDS"},"data":[0,0,0,0,0,0,0,0,0,0,0,0,0,0,0,0,0,0,0,0,0,0,0,0,0,0,0,0,0,0,0,0,0,0,0,0,0,0,0,0,0,0,0,0,0,0,0,0,0,0,0,0,0,0,0,0,0,0,1.5825,1.5826,0,1.5909,1.591,1.5911,1.5937,1.5937,1.5937,1.5936,1.6019,1.6022,1.6025,0,0,0,0,0,0,0,0,0,0,0,0,0,1.5685,1.5688,1.5825,1.5826,1.5827,1.5909,1.591,1.5911,1.5937,1.5937,1.5936,1.5936,1.6019,1.6022,1.6025,0,0,0,0,0,0,0,0,0,0,0,0,0,1.5755,1.5688,1.5825,1.585,1.5853,1.5909,1.591,1.5911,1.5937,1.5937,1.5936,1.5936,1.6018,1.6021,1.6025,1.606,0,0,1.6037,1.6039,0,0,0,0,0,0,0,0,1.5751,1.576,1.5846,1.5849,1.5852,1.5912,1.5891,1.5961,1.5938,1.5905,1.5936,1.5936,1.5984,1.5991,1.6008,1.6064,1.6068,1.6037,1.604,1.6041,1.6042,0,0,0,0,0,0,0,1.5746,1.5757,1.5858,1.5847,1.5851,1.5856,1.5866,1.5904,1.5947,1.5908,1.591,1.592,1.5986,1.6004,1.601,1.6069,1.6037,1.6041,1.6043,1.6045,1.6157,1.6158,0,0,0,0,0,0,1.5737,1.5752,1.5856,1.5861,1.5799,1.5859,1.587,1.5893,1.5947,1.5954,1.592,1.5921,1.5997,1.6005,1.6013,1.6056,1.6041,1.6045,1.6047,1.6157,1.6157,1.6158,0,0,0,0,0,0,1.5734,1.5746,1.5852,1.5807,1.5821,1.5862,1.5889,1.5895,1.5913,1.5956,1.5963,1.5931,1.5997,1.6007,1.6048,1.606,1.6047,1.605,1.6156,1.6157,1.6158,1.6145,0,0,0,0,0,0,1.573,1.5745,1.576,1.5807,1.5823,1.5887,1.589,1.5897,1.592,1.5922,1.5968,1.5975,1.5998,1.6042,1.6052,1.6065,1.6053,1.6155,1.6156,1.6157,1.6144,1.6145,1.6146,0,0,0,0,0,1.5725,1.5753,1.576,1.5773,1.5843,1.5888,1.5897,1.5923,1.5921,1.5936,1.5963,1.5973,1.6057,1.6046,1.6057,1.6071,1.6154,1.6156,1.6157,1.6144,1.6145,1.6146,0,0,0,0,0,0,1.5705,1.5759,1.5769,1.5813,1.5845,1.5892,1.5911,1.5924,1.5957,1.5957,1.5987,1.5998,1.6036,1.6058,1.6045,1.6108,1.6106,1.611,1.6092,1.6093,1.6094,1.6088,1.6056,0,0,0,0,0,1.5705,1.5738,1.5784,1.5818,1.5834,1.587,1.5891,1.5908,1.5943,1.5957,1.5987,1.6019,1.6053,1.6074,1.6108,1.6148,1.6157,1.6163,1.6163,1.6164,1.6167,1.6188,1.6191,1.6163,1.6163,1.6163,0,0,1.5707,1.5741,1.576,1.5815,1.5842,1.5875,1.5881,1.5916,1.5939,1.5962,1.6002,1.6025,1.6063,1.6104,1.6123,1.6123,1.6176,1.6166,1.6166,1.6168,1.619,1.6192,1.6195,1.6164,1.6164,1.6164,0,0,1.5726,1.5756,1.5787,1.5814,1.5856,1.5879,1.5887,1.5932,1.5948,1.5989,1.6006,1.6034,1.6092,1.6118,1.6139,1.6167,1.6178,1.6177,1.6181,1.6201,1.6203,1.6205,1.6214,1.6217,1.6179,1.6179,1.6179,0,1.5723,1.5773,1.5801,1.5834,1.5857,1.5879,1.591,1.5935,1.5985,1.6,1.6,1.6072,1.6099,1.6145,1.6152,1.6169,1.6177,1.6171,1.6201,1.6203,1.6206,1.6214,1.6218,1.6179,1.6179,1.6179,1.6179,0,1.5766,1.58,1.582,1.5869,1.5894,1.5926,1.5958,1.598,1.5994,1.6017,1.6058,1.6092,1.6132,1.6144,1.6159,1.6192,1.619,1.6195,1.6194,1.6207,1.6216,1.622,1.6178,1.6178,1.6179,1.6179,0,0,1.5775,1.5838,1.5845,1.5866,1.5913,1.594,1.5972,1.6012,1.6029,1.6063,1.609,1.6137,1.6142,1.6165,1.6183,1.6201,1.6219,1.6204,1.6205,1.6205,1.6256,1.6252,1.6256,1.6227,1.6228,1.6228,1.6253,0,1.5799,1.5859,1.5885,1.5932,1.5963,1.5984,1.6011,1.6043,1.6065,1.6093,1.6117,1.615,1.6154,1.6169,1.6187,1.6213,1.623,1.6212,1.6251,1.6252,1.624,1.626,1.6256,1.6278,1.6257,1.6257,1.6258,0,1.5836,1.587,1.592,1.5963,1.5977,1.6001,1.6039,1.6067,1.6102,1.6117,1.6143,1.6159,1.6192,1.6189,1.6235,1.6222,1.6239,1.6254,1.6255,1.626,1.6255,1.6264,1.6285,1.6288,1.6264,1.6263,1.6263,0,1.5836,1.5894,1.5932,1.595,1.6,1.6017,1.6038,1.6073,1.6095,1.6128,1.6142,1.6177,1.6197,1.6224,1.6249,1.6245,1.6291,1.6291,1.6304,1.6303,1.6312,1.6311,1.6336,1.6325,1.6324,1.6324,1.6324,0,1.5861,1.589,1.5932,1.5955,1.5989,1.6017,1.6049,1.6072,1.6103,1.6129,1.6149,1.6174,1.6206,1.6235,1.6255,1.6288,1.6297,1.6309,1.6314,1.6307,1.6305,1.6318,1.6317,1.6325,1.6325,1.6325,1.6325,0,1.5866,1.5896,1.5938,1.5982,1.5994,1.6016,1.6054,1.6076,1.6099,1.6132,1.6142,1.6177,1.6211,1.6239,1.6284,1.6297,1.6332,1.6338,1.6321,1.6323,1.6334,1.6332,1.6367,1.6373,1.6358,1.6359,1.6359,0,1.5879,1.5903,1.5949,1.5969,1.5991,1.6022,1.6044,1.6073,1.6095,1.6136,1.6153,1.6189,1.6219,1.6273,1.6302,1.6336,1.6342,1.6352,1.6347,1.6339,1.6341,1.6339,1.6341,1.6352,1.6352,1.6352,1.6352,0,1.5899,1.5913,1.5944,1.5981,1.6007,1.6037,1.6067,1.6082,1.6116,1.614,1.6175,1.6199,1.6244,1.6279,1.6316,1.6337,1.635,1.6353,1.6358,1.6351,1.6339,1.6345,1.6321,1.6352,1.6352,1.6352,1.6352,1.6352,1.5909,1.593,1.5966,1.6,1.6026,1.6054,1.6077,1.6102,1.6133,1.6172,1.6187,1.6223,1.6257,1.6308,1.6329,1.6357,1.6358,1.6365,1.6367,1.6368,1.6366,1.6335,1.6364,1.6364,1.6364,1.6364,1.6364,0,1.5929,1.5953,1.5984,1.6026,1.6053,1.6063,1.6097,1.6118,1.615,1.618,1.621,1.625,1.6283,1.6315,1.635,1.6366,1.6372,1.6374,1.6373,1.6377,1.6364,1.6356,1.6368,1.6368,1.6368,1.6368,1.6368,1.6368,1.5942,1.5978,1.5996,1.6044,1.6068,1.6104,1.6122,1.6147,1.6172,1.6216,1.6244,1.6265,1.6295,1.6332,1.6363,1.6372,1.6383,1.6383,1.6392,1.6379,1.6378,1.6377,1.637,1.6385,1.6385,1.6404,1.6404,1.6404]},{"header":{"parameterUnit":"m.s-1","parameterCategory":1,"la1":30.2991,"la2":30.254,"lo1":-89.0895,"lo2":-89.0444,"dy":0.0017,"dx":0.0017,"nx":28,"ny":28,"refTime":"2025-08-21T03:00:00:Z","depth":0,"parameterNumber":3,"parameterNumberName":"V-component_of_WINDS"},"data":[0,0,0,0,0,0,0,0,0,0,0,0,0,0,0,0,0,0,0,0,0,0,0,0,0,0,0,0,0,0,0,0,0,0,0,0,0,0,0,0,0,0,0,0,0,0,0,0,0,0,0,0,0,0,0,0,0,0,1.1716,1.1715,0,1.1689,1.1688,1.1688,1.1649,1.1649,1.1648,1.1647,1.162,1.162,1.162,0,0,0,0,0,0,0,0,0,0,0,0,0,1.1734,1.1734,1.1716,1.1715,1.1715,1.1689,1.1688,1.1688,1.1649,1.1649,1.1648,1.1647,1.162,1.162,1.162,0,0,0,0,0,0,0,0,0,0,0,0,0,1.1718,1.1734,1.1716,1.1693,1.169,1.1689,1.1688,1.1688,1.165,1.1649,1.1648,1.1647,1.162,1.162,1.162,1.1639,0,0,1.162,1.162,0,0,0,0,0,0,0,0,1.1719,1.1718,1.1696,1.1694,1.1692,1.1671,1.1685,1.1672,1.165,1.1665,1.1647,1.1646,1.1638,1.1636,1.1634,1.1638,1.1637,1.162,1.1619,1.1619,1.1619,0,0,0,0,0,0,0,1.172,1.1719,1.1705,1.1696,1.1693,1.1684,1.168,1.1682,1.1658,1.1664,1.1661,1.1658,1.1637,1.1634,1.1633,1.1637,1.162,1.1619,1.1619,1.1619,1.1655,1.1656,0,0,0,0,0,0,1.1725,1.172,1.1706,1.1704,1.1703,1.1684,1.168,1.1679,1.1657,1.1653,1.1659,1.1656,1.1635,1.1633,1.1632,1.1652,1.1619,1.1619,1.1619,1.1654,1.1655,1.1656,0,0,0,0,0,0,1.1725,1.1724,1.1707,1.1711,1.1708,1.1685,1.1683,1.1679,1.1676,1.1654,1.1649,1.1661,1.1634,1.1632,1.1638,1.1651,1.1619,1.1619,1.1653,1.1654,1.1656,1.1695,0,0,0,0,0,0,1.1726,1.1724,1.1732,1.1712,1.1708,1.1714,1.1684,1.1679,1.1676,1.1672,1.1654,1.165,1.1633,1.1638,1.1637,1.165,1.1619,1.1651,1.1653,1.1655,1.1692,1.1697,1.1702,0,0,0,0,0,1.1727,1.1744,1.1732,1.1731,1.1717,1.1714,1.1712,1.1692,1.1677,1.1684,1.167,1.1651,1.165,1.1639,1.1638,1.1651,1.165,1.1653,1.1655,1.169,1.1696,1.1702,0,0,0,0,0,0,1.1766,1.1741,1.1728,1.1739,1.1729,1.1708,1.1716,1.1699,1.1694,1.1691,1.1665,1.1661,1.167,1.1661,1.165,1.1668,1.1647,1.1649,1.1674,1.168,1.1685,1.1687,1.1619,0,0,0,0,0,1.1776,1.1776,1.1754,1.1766,1.1762,1.174,1.1738,1.1723,1.1712,1.1708,1.1694,1.1684,1.1681,1.168,1.1676,1.169,1.1686,1.1699,1.1704,1.1708,1.171,1.1716,1.1722,1.1664,1.1664,1.1664,0,0,1.1797,1.1783,1.1785,1.1774,1.1764,1.1765,1.1737,1.1739,1.1739,1.1708,1.1713,1.1702,1.1689,1.1699,1.1703,1.1692,1.1725,1.1711,1.1714,1.1714,1.1719,1.1725,1.173,1.1665,1.1665,1.1665,0,0,1.1835,1.1824,1.1833,1.1824,1.181,1.1795,1.1798,1.1779,1.1771,1.1775,1.1751,1.1751,1.1747,1.1739,1.1734,1.1768,1.1751,1.1768,1.1793,1.18,1.1804,1.1808,1.182,1.1825,1.177,1.177,1.177,0,1.1862,1.1862,1.184,1.1843,1.1839,1.181,1.1819,1.1811,1.1797,1.1795,1.1782,1.1776,1.1766,1.1773,1.1781,1.1779,1.178,1.177,1.1806,1.1809,1.1813,1.1824,1.1828,1.1772,1.1772,1.1772,1.1772,0,1.1897,1.1897,1.1906,1.1893,1.1889,1.1895,1.1873,1.1872,1.1857,1.1844,1.1848,1.1834,1.1827,1.1828,1.1813,1.1833,1.1826,1.181,1.1789,1.1821,1.1831,1.1835,1.1775,1.1775,1.1774,1.1773,0,0,1.1959,1.1933,1.1936,1.193,1.1912,1.1912,1.1917,1.1909,1.1909,1.19,1.1903,1.19,1.1885,1.1879,1.1863,1.1869,1.1897,1.1852,1.1851,1.1861,1.1917,1.193,1.1935,1.1885,1.1886,1.1886,1.1918,0,1.1994,1.2,1.1979,1.1991,1.1991,1.1963,1.1967,1.1957,1.1944,1.1942,1.1928,1.1926,1.1906,1.1903,1.1907,1.1893,1.1908,1.189,1.1887,1.1888,1.1892,1.194,1.1953,1.1985,1.1922,1.1923,1.1923,0,1.2035,1.2028,1.2039,1.2021,1.202,1.2024,1.2015,1.2014,1.2001,1.1991,1.1985,1.1967,1.1969,1.1949,1.1952,1.194,1.1938,1.1931,1.1931,1.193,1.1908,1.1941,1.1994,1.1999,1.1929,1.1929,1.1928,0,1.2079,1.2073,1.2078,1.2074,1.2052,1.2055,1.2046,1.2033,1.203,1.2022,1.2019,1.2012,1.2009,1.2004,1.1983,1.197,1.1989,1.1967,1.1981,1.1982,1.1987,1.1987,1.204,1.1985,1.1985,1.1985,1.1985,0,1.212,1.2128,1.2098,1.2102,1.211,1.2086,1.2094,1.2083,1.2071,1.2071,1.2047,1.2049,1.2022,1.202,1.2005,1.201,1.2008,1.2,1.1996,1.2002,1.2003,1.2001,1.1998,1.1986,1.1986,1.1986,1.1986,0,1.2171,1.2151,1.2156,1.2135,1.213,1.2136,1.2118,1.2121,1.2106,1.2107,1.2106,1.2084,1.208,1.206,1.2052,1.2041,1.2052,1.2043,1.2056,1.2053,1.2069,1.2068,1.2123,1.2128,1.207,1.207,1.2071,0,1.2198,1.2204,1.2183,1.2182,1.2174,1.2173,1.2169,1.2145,1.2143,1.2128,1.2132,1.2127,1.2121,1.2117,1.21,1.2093,1.2085,1.2104,1.2083,1.209,1.2085,1.2085,1.2085,1.2109,1.211,1.211,1.2111,0,1.2249,1.2239,1.2235,1.2227,1.2223,1.2216,1.2207,1.2208,1.2182,1.218,1.2176,1.2171,1.2163,1.2158,1.2148,1.2139,1.212,1.2117,1.212,1.2127,1.2134,1.213,1.2068,1.2116,1.2116,1.2115,1.2115,1.2115,1.2289,1.2292,1.2278,1.2274,1.2265,1.2258,1.2259,1.2244,1.224,1.2232,1.2218,1.2216,1.2202,1.2188,1.218,1.2178,1.2167,1.2171,1.2173,1.2174,1.2177,1.2134,1.2176,1.2176,1.2175,1.2175,1.2175,0,1.2338,1.2327,1.2324,1.2313,1.2309,1.2292,1.2281,1.228,1.2278,1.2268,1.2262,1.2258,1.2252,1.2235,1.2227,1.2229,1.222,1.2228,1.2228,1.2226,1.2187,1.2185,1.2235,1.2235,1.2235,1.2235,1.2235,1.2235,1.2363,1.2368,1.2356,1.2356,1.2345,1.2343,1.2339,1.2331,1.2322,1.2318,1.2314,1.2302,1.2288,1.228,1.2274,1.2269,1.2267,1.2278,1.227,1.2234,1.2228,1.2223,1.2221,1.2277,1.2277,1.2308,1.2308,1.2309]}]]